Regional Weather Roundup
Issued by NWS Northern Indiana

Home | Current Version | Previous Version | Graphics & Text | Print | Product List | Glossary On
Versions: 1 2 3 4 5 6 7 8 9 10 11 12 13 14 15 16 17 18 19 20 21 22 23 24 25 26 27 28 29 30 31 32 33 34 35 36 37 38 39 40 41 42 43 44 45 46 47 48 49 50
000
ASUS43 KIWX 300700
RWRIWX

KIWX WEATHER ROUNDUP
NATIONAL WEATHER SERVICE NORTHERN INDIANA
300 AM EDT THU MAR 30 2017

NOTE: "FAIR" INDICATES FEW OR NO CLOUDS BELOW 12,000 FEET WITH NO
SIGNIFICANT WEATHER AND/OR OBSTRUCTIONS TO VISIBILITY.

* THESE STATIONS ARE NOT UNDER NWS QUALITY CONTROL. THEY ALSO MAY NOT
  REPORT WEATHER SUCH AS PRECIPITATION OR FOG.

INZ001>027-300800-
NORTHERN INDIANA

CITY           SKY/WX    TMP DP  RH WIND       PRES   REMARKS
KNOX*          CLOUDY    46  18  31 E22G28    29.91F
SOUTH BEND     CLOUDY    45  34  65 E18G25    29.95F
GOSHEN         CLOUDY    45  33  63 E21       30.00F
MONTICELLO*    CLOUDY    45  37  73 E16G26    29.87F
ANGOLA*        CLOUDY    43  34  70 E17       30.04F
FORT WAYNE     CLOUDY    44  37  76 E22G29    30.00F
PERU/GRISSOM   LGT RAIN  45  37  76 E20G26    29.90F

$$
INZ028>050-300800-
CENTRAL INDIANA

CITY           SKY/WX    TMP DP  RH WIND       PRES   REMARKS
LAFAYETTE      CLOUDY    47  42  83 E17       29.85F
KOKOMO*        LGT RAIN  45  38  76 E16G25    29.92F
MUNCIE*        CLOUDY    49  39  68 E15       29.95F
INDIANAPOLIS   CLOUDY    55  42  61 E15G24    29.87F

$$
MIZ043>046-050>051-056>058-064>065-071>073-077>080-300800-
SOUTHWEST LOWER MICHIGAN

CITY           SKY/WX    TMP DP  RH WIND       PRES   REMARKS
BATTLE CREEK   CLOUDY    41  36  82 NE14G22   30.07F
BENTON HARBOR  CLOUDY    45  35  68 E18G28    29.99F
COLDWATER*     CLOUDY    44  31  60 E10G21    30.05F
HILLSDALE*     CLOUDY    41  32  70 E13G21    30.08F
HOLLAND        CLOUDY    39  34  82 E12       30.07F
GRAND RAPIDS   CLOUDY    37  35  92 E15       30.09F
KALAMAZOO      LGT RAIN  43  35  73 E13G18    30.05F
STURGIS*       CLOUDY    43  33  65 E17G25    30.03F
THREE RIVERS*  CLOUDY    44  32  62 E16       30.04F

$$
OHZ001>008-015>018-024>025-300800-
NORTHWEST OHIO

CITY           SKY/WX    TMP DP  RH WIND       PRES   REMARKS
DEFIANCE       LGT RAIN  42  34  73 NE13      30.07F
FINDLAY        CLOUDY    46  32  58 NE14      30.05F
TOLEDO EXPRESS CLOUDY    43  33  68 NE13      30.13R
TOLEDO METCALF CLOUDY    43  35  73 NE13G21   30.11F
LIMA           LGT RAIN  45  35  68 E18       30.02F

$$
AND FOR LAKE MICHIGAN COASTAL AND OPEN LAKE BUOY OBSERVATIONS

STATION/POSITION TEMP    WIND        PRES    VSBY  WAVE
                 AIR SEA DIR/SP/G                  HT/PER
                 (F)     (DEG/KT/KT) (MB)    (MI)  (FT/S)
CALUMET HARBOR    40      60/ 21/ 25 1012.9F
MICHIGAN CITY     47      70/ 19/ 23   N/A
BURNS HARBOR      48      90/ 15     1014.2

$$
&&



USA.gov is the U.S. government's official web portal to all federal, state and local government web resources and services.